TimePST,TemperatureF,Dew PointF,Humidity,Sea Level PressureIn,VisibilityMPH,Wind Direction,Wind SpeedMPH,Gust SpeedMPH,PrecipitationIn,Events,Conditions,WindDirDegrees,DateUTC
12:56 AM,53.1,37.9,57,29.87,10.0,SSW,13.8,-,N/A,,Partly Cloudy,210,2012-12-07 08:56:00
1:56 AM,55.0,37.9,53,29.88,10.0,South,8.1,-,N/A,,Partly Cloudy,180,2012-12-07 09:56:00
2:56 AM,51.1,37.9,61,29.88,10.0,South,10.4,-,N/A,,Partly Cloudy,190,2012-12-07 10:56:00
3:56 AM,48.9,37.0,64,29.88,10.0,SSW,10.4,-,N/A,,Partly Cloudy,200,2012-12-07 11:56:00
4:56 AM,48.9,36.0,61,29.90,10.0,SW,6.9,-,N/A,,Partly Cloudy,220,2012-12-07 12:56:00
5:56 AM,48.9,35.1,59,29.93,10.0,South,4.6,-,N/A,,Partly Cloudy,170,2012-12-07 13:56:00
6:56 AM,48.9,34.0,56,29.95,10.0,SSW,9.2,-,N/A,,Partly Cloudy,200,2012-12-07 14:56:00
7:56 AM,52.0,30.0,43,29.98,10.0,SSW,8.1,-,N/A,,Partly Cloudy,200,2012-12-07 15:56:00
8:56 AM,59.0,30.9,35,29.97,10.0,South,4.6,-,N/A,,Partly Cloudy,180,2012-12-07 16:56:00
9:56 AM,62.1,30.9,31,29.98,10.0,North,9.2,-,N/A,,Partly Cloudy,10,2012-12-07 17:56:00
10:56 AM,64.9,28.9,26,29.97,10.0,NNE,8.1,-,N/A,,Partly Cloudy,30,2012-12-07 18:56:00
11:56 AM,66.9,24.1,20,29.94,10.0,NNW,10.4,16.1,N/A,,Partly Cloudy,340,2012-12-07 19:56:00
12:56 PM,66.9,25.0,21,29.93,10.0,North,8.1,-,N/A,,Partly Cloudy,360,2012-12-07 20:56:00
1:56 PM,66.9,23.0,19,29.91,10.0,Calm,Calm,-,N/A,,Partly Cloudy,0,2012-12-07 21:56:00
2:56 PM,66.9,19.9,17,29.90,10.0,Calm,Calm,-,N/A,,Partly Cloudy,0,2012-12-07 22:56:00
3:56 PM,66.0,19.0,17,29.90,10.0,NNE,3.5,-,N/A,,Partly Cloudy,20,2012-12-07 23:56:00
4:56 PM,63.0,18.0,18,29.92,10.0,Variable,5.8,-,N/A,,Partly Cloudy,0,2012-12-08 00:56:00
5:56 PM,62.1,19.0,19,29.92,10.0,West,9.2,-,N/A,,Clear,280,2012-12-08 01:56:00
6:56 PM,57.9,23.0,26,29.94,10.0,SW,4.6,-,N/A,,Clear,220,2012-12-08 02:56:00
7:56 PM,55.9,25.0,30,29.93,10.0,SSW,10.4,-,N/A,,Clear,210,2012-12-08 03:56:00
8:56 PM,53.1,25.0,34,29.94,10.0,SW,8.1,-,N/A,,Clear,220,2012-12-08 04:56:00
9:56 PM,51.1,26.1,38,29.93,10.0,SSW,10.4,-,N/A,,Clear,200,2012-12-08 05:56:00
10:56 PM,51.1,25.0,36,29.93,10.0,SSW,6.9,-,N/A,,Clear,200,2012-12-08 06:56:00
11:56 PM,50.0,24.1,36,29.92,10.0,SSW,10.4,-,N/A,,Clear,210,2012-12-08 07:56:00